Location: Newark
(52.3500°N, 175.9667°E)
Time: 05:23:59
(UTC+00:00)

N. Korean satellite - Pass Details

Date: 21 November 2019
Orbit: 456 x 506 km, 97.2° (Epoch: 05 December)

Event Time Altitude Azimuth Distance (km) Brightness Sun altitude
Rises 04:54:44 0° 158° (SSE) 2,573 10.3 -5.9°
Reaches altitude 10° 04:56:48 10° 156° (SSE) 1,701 9.3 -6.2°
Maximum altitude 05:00:26 67° 74° (ENE) 551 6.6 -6.7°
Drops below altitude 10° 05:04:09 10° 351° (N) 1,732 9.2 -7.2°
Sets 05:06:16 0° 349° (N) 2,625 10.2 -7.5°
